THORAD AGENA D DEB

Satellite information

Favourite Embed

Satellite Type and Status

DEBRISIN ORBIT

Key statistics

Satellite THORAD AGENA D DEB at a glance.

Uptime

20476

Days in orbit

Revolutions

≈ 14.2

Per day

Orbit

LEO

Low Earth Orbit

Inclination

70.1

Latest

Satellite identification and parameters

Extended collection of information and parameters for THORAD AGENA D DEB.

Object identification

Identified? True

Debris? True

Object name: THORAD AGENA D DEB

International designator: 1969-082HW

Object number (NORAD): 5430

Object ID (CCSDS): 5430

Country: UNITED STATES OF AMERICA (US)

Current information (Y/N): Y

RCS size: SMALL

Orbital parameters

Period: 101.38 minutes

Inclination: 70.1072 deg

SMA: 7202.146 km

Apoapsis: 868.219 km

Periapsis: 779.804 km

RAAN: 191.1853 deg

Eccentricy: 0.00613804

Argument of periapsis: 281.5083 deg

Mean anomaly: 77.9148 deg

Mean motion: 14.20397306 rev/day

Mean motion (dot): 0.00001597 rev/day2

B* drag term: 0.00075628188 1/REarth

Two-line elements (TLE)

Creation date: Oct. 21, 2025, 6:24 p.m.

Reference frame: TEME

Reference center: EARTH

Epoch: Oct. 21, 2025, 2:46 a.m. UTC

TLE line 0: 0 THORAD AGENA D DEB

TLE line 1: 1 05430U 69082HW 25294.11550250 .00001597 00000-0 75628-3 0 9991

TLE line 2: 2 05430 70.1072 191.1853 0061380 281.5083 77.9148 14.20397306879289

Live tracking on map

Real-time ground track for satellite THORAD AGENA D DEB.

In-orbit conjunctions

A list of the most updated potential collisions computed for object THORAD AGENA D DEB.

Target Orbit TCA Probability of collision Miss distance Type
SL-3 R/B LEO 2025-09-24 05:28:37 0.0003929063 130.0 (m) ROCKET BODY
COSMOS 1844 LEO 2025-02-07 19:25:43 0.000158895 100.0 (m) PAYLOAD

Associated space launch

Poppy was the follow-on ELINT system, which succeeded the Grab ELINT satellite system.

THORAD AGENA D DEB was lifted into orbit during the mission ‘Thorad SLV-2G Agena D | Poppy 8A,B,C,D’, on board a Thorad SLV-2G Agena D space rocket.

The launch took place on Sept. 30, 1969, 1:40 p.m. from Space Launch Complex 1W.

For more information about the launch, click the button.

Launch to space Thorad SLV-2G Agena D | Poppy 8A,B,C,D
Thorad SLV-2G Agena D | Poppy 8A,B,C,D

Agency: N/A

Status: Launch Successful

Launch date: Sept. 30, 1969, 1:40 p.m. UTC

Rocket: Thorad SLV-2G Agena D

Launch pad: Space Launch Complex 1W

Location: Vandenberg SFB, CA, USA

...

Latest news about this satellite

There are no fresh news available about this satellite. Check back as we update our databases every day.


Newsletter sign-up

Weekly statistics, charts and insights to help you stay on top of the space industry.